BAGASKAR Weather Reports


time (UTC)temp
F
wind
direction
speed
knots
gust
knots
rain 1hr
in
rain 24hr
in
rain mn
in
humidity
%
barometer
mb
20260508094730 49 219 5.2 10.4 0.00 0.00 0.00 56 1026.5
20260508092730 51 204 4.3 7.8 0.00 0.00 0.00 50 1026.5
20260508090730 50 258 3.5 11.3 0.00 0.00 0.00 51 1026.5
20260508084730 53 46 4.3 8.7 0.00 0.00 0.00 43 1026.6
20260508082730 52 33 7.8 9.6 0.00 0.00 0.00 52 1026.5
20260508080731 52 39 8.7 13.9 0.00 0.00 0.00 48 1026.4
20260508074730 51 45 7.8 13.9 0.00 0.00 0.00 51 1026.2
20260508070730 49 45 5.2 7.0 0.00 0.00 0.00 48 1026.2
20260508064730 48 46 6.1 8.7 0.00 0.00 0.00 52 1026.1
20260508062729 48 35 5.2 9.6 0.00 0.00 0.00 60 1025.9
20260508060730 46 24 3.5 4.3 0.00 0.00 0.00 58 1025.7
20260508054730 45 24 5.2 7.0 0.00 0.00 0.00 62 1025.5
20260508050730 44 27 7.8 10.4 0.00 0.00 0.00 64 1025.0
20260508044730 43 26 7.0 8.7 0.00 0.00 0.00 64 1024.7
20260508040729 43 27 8.7 10.4 0.00 0.00 0.00 66 1024.3
20260508034729 42 27 9.6 13.0 0.00 0.00 0.00 65 1024.1
20260508032730 42 24 9.6 13.9 0.00 0.00 0.00 65 1023.9
20260508030730 42 25 9.6 13.9 0.00 0.00 0.00 66 1023.7
20260508024728 42 25 9.6 13.0 0.00 0.00 0.00 68 1023.4
20260508022728 42 20 9.6 13.0 0.00 0.00 0.00 66 1023.1
20260508020729 42 19 10.4 13.0 0.00 0.00 0.00 65 1022.4
20260508014729 42 19 10.4 14.8 0.00 0.00 0.00 64 1022.6
20260508012728 42 19 11.3 15.6 0.00 0.00 0.00 61 1022.3
20260508010729 42 17 10.4 14.8 0.00 0.00 0.00 63 1022.2
20260508004728 43 7 10.4 13.9 0.00 0.00 0.00 61 1021.8
20260508002729 43 7 10.4 14.8 0.00 0.00 0.00 65 1021.6
20260508000729 43 3 11.3 15.6 0.00 0.00 0.00 61 1021.4
20260507234729 44 1 11.3 15.6 0.00 0.00 0.00 61 1021.1
20260507232728 44 360 10.4 14.8 0.00 0.00 0.00 59 1020.9
20260507230728 44 357 9.6 13.9 0.00 0.00 0.00 56 1020.6
20260507224728 45 6 11.3 15.6 0.00 0.00 0.00 58 1020.3
20260507222728 46 3 12.2 16.5 0.00 0.00 0.00 57 1020.1
20260507220728 46 1 11.3 16.5 0.00 0.00 0.00 51 1019.9
20260507214728 46 352 10.4 14.8 0.00 0.00 0.00 46 1019.7
20260507212728 46 355 11.3 15.6 0.00 0.00 0.00 46 1019.5
20260507204728 47 355 9.6 15.6 0.00 0.00 0.00 45 1018.9
20260507202728 47 358 11.3 15.6 0.00 0.00 0.00 44 1018.8
20260507200728 47 353 11.3 16.5 0.00 0.00 0.00 43 1018.4
20260507194728 46 349 10.4 18.2 0.00 0.00 0.00 49 1018.0
20260507192727 45 339 7.8 13.0 0.00 0.00 0.00 63 1017.6
20260507190727 44 326 7.0 9.6 0.00 0.00 0.00 78 1017.3
20260507184728 45 265 8.7 10.4 0.00 0.00 0.00 89 1017.1
20260507182727 45 250 10.4 13.0 0.00 0.00 0.00 70 1016.9
20260507180726 45 247 10.4 13.0 0.00 0.00 0.00 68 1016.9
20260507174727 46 252 12.2 13.9 0.00 0.00 0.00 62 1016.9
20260507172726 47 248 12.2 14.8 0.00 0.00 0.00 56 1016.8
20260507170727 48 259 11.3 13.9 0.00 0.00 0.00 58 1016.8
20260507164727 49 256 12.2 13.9 0.00 0.00 0.00 56 1016.8
20260507162727 51 252 13.0 14.8 0.00 0.00 0.00 50 1016.7
20260507160727 53 251 11.3 13.9 0.00 0.00 0.00 41 1016.6
20260507154727 54 251 9.6 11.3 0.00 0.00 0.00 44 1016.5
20260507152726 53 257 10.4 11.3 0.00 0.00 0.00 40 1016.5
20260507150728 52 257 9.6 11.3 0.00 0.00 0.00 44 1016.5
20260507144727 52 261 8.7 10.4 0.00 0.00 0.00 48 1016.4
20260507142728 53 257 9.6 11.3 0.00 0.00 0.00 51 1016.3
20260507140726 53 256 9.6 10.4 0.00 0.00 0.00 52 1016.1
20260507134727 53 260 8.7 10.4 0.00 0.00 0.00 49 1016.1
20260507132726 52 251 6.1 7.0 0.00 0.00 0.00 46 1016.1
20260507130727 52 248 6.1 7.0 0.00 0.00 0.00 48 1016.2
20260507124726 52 232 5.2 6.1 0.00 0.00 0.00 49 1016.1
20260507122726 49 214 4.3 7.0 0.00 0.00 0.00 54 1016.1
20260507120727 50 181 5.2 7.8 0.00 0.00 0.00 65 1016.1
20260507114727 50 198 4.3 7.0 0.00 0.00 0.00 59 1016.1
20260507112725 49 182 6.1 7.8 0.00 0.00 0.00 69 1016.1
20260507110725 49 169 4.3 7.0 0.00 0.00 0.00 65 1016.0
20260507104725 50 166 5.2 7.8 0.00 0.00 0.00 68 1016.0
20260507102725 50 161 4.3 7.8 0.00 0.00 0.00 64 1016.0
20260507100725 49 175 3.5 7.0 0.00 0.00 0.00 69 1015.9